EN

Hourly Weather Oleksandriia

Today, 16 May, Sunday

Time Temperature Precipitation Wind Pressure Humidity
00:00 +11°C° 0 mm 1 mps 740 mmHg 86%
01:00 +10°C° 0 mm 1 mps 740 mmHg 87%
02:00 +9°C° 0 mm 2 mps 740 mmHg 88%
03:00 +9°C° 0 mm 2 mps 740 mmHg 89%
04:00 +9°C° 0 mm 2 mps 740 mmHg 90%
05:00 +9°C° 0 mm 2 mps 739 mmHg 90%
06:00 +10°C° 0 mm 3 mps 739 mmHg 86%
07:00 +12°C° 0 mm 3 mps 740 mmHg 82%
08:00 +14°C° 0 mm 4 mps 740 mmHg 77%
09:00 +15°C° 0 mm 4 mps 740 mmHg 73%
10:00 +17°C° 0 mm 5 mps 739 mmHg 68%
11:00 +20°C° 0 mm 5 mps 739 mmHg 64%
12:00 +20°C° 0.2 mm 5 mps 739 mmHg 62%
13:00 +21°C° 0.2 mm 5 mps 738 mmHg 61%
14:00 +22°C° 0.2 mm 5 mps 738 mmHg 59%
15:00 +21°C° 0.6 mm 5 mps 738 mmHg 62%
16:00 +21°C° 0.6 mm 5 mps 737 mmHg 66%
17:00 +20°C° 0.6 mm 4 mps 737 mmHg 69%
18:00 +18°C° 0.8 mm 4 mps 737 mmHg 74%
19:00 +17°C° 0.8 mm 4 mps 737 mmHg 80%
20:00 +14°C° 0.8 mm 4 mps 737 mmHg 85%
21:00 +14°C° 0.2 mm 3 mps 737 mmHg 88%
22:00 +13°C° 0.2 mm 3 mps 737 mmHg 90%
23:00 +13°C° 0.2 mm 3 mps 737 mmHg 93%

Tomorrow, 17 May, Monday

Time Temperature Precipitation Wind Pressure Humidity
00:00 +13°C° 0.1 mm 3 mps 737 mmHg 94%
01:00 +14°C° 0.1 mm 2 mps 737 mmHg 94%
02:00 +13°C° 0.1 mm 2 mps 737 mmHg 95%
03:00 +13°C° 0 mm 2 mps 737 mmHg 95%
04:00 +13°C° 0 mm 2 mps 738 mmHg 95%
05:00 +12°C° 0 mm 2 mps 738 mmHg 95%
06:00 +13°C° 0 mm 2 mps 738 mmHg 89%
07:00 +14°C° 0 mm 2 mps 738 mmHg 84%
08:00 +15°C° 0 mm 2 mps 738 mmHg 78%
09:00 +16°C° 0 mm 2 mps 738 mmHg 73%
10:00 +19°C° 0 mm 1 mps 738 mmHg 67%
11:00 +20°C° 0 mm 1 mps 737 mmHg 61%
12:00 +21°C° 0 mm 1 mps 737 mmHg 59%
13:00 +21°C° 0 mm 1 mps 737 mmHg 56%
14:00 +22°C° 0 mm 1 mps 736 mmHg 53%
15:00 +22°C° 0 mm 1 mps 736 mmHg 53%
16:00 +20°C° 0 mm 0 mps 736 mmHg 53%
17:00 +20°C° 0 mm 0 mps 735 mmHg 54%
18:00 +18°C° 0 mm 0 mps 735 mmHg 58%
19:00 +19°C° 0 mm 1 mps 735 mmHg 61%
20:00 +18°C° 0 mm 1 mps 735 mmHg 65%
21:00 +16°C° 0 mm 1 mps 734 mmHg 69%
22:00 +15°C° 0 mm 1 mps 734 mmHg 72%
23:00 +14°C° 0 mm 1 mps 734 mmHg 75%

Day after tomorrow, 18 May, Tuesday

Time Temperature Precipitation Wind Pressure Humidity
00:00 +14°C° 0 mm 1 mps 734 mmHg 80%
01:00 +13°C° 0 mm 2 mps 733 mmHg 84%
02:00 +13°C° 0 mm 2 mps 733 mmHg 88%
03:00 +12°C° 0.2 mm 3 mps 733 mmHg 90%
04:00 +12°C° 0.2 mm 3 mps 733 mmHg 92%
05:00 +12°C° 0.2 mm 3 mps 733 mmHg 94%
06:00 +12°C° 1.4 mm 4 mps 733 mmHg 94%
07:00 +10°C° 1.4 mm 5 mps 733 mmHg 95%
08:00 +10°C° 1.4 mm 6 mps 733 mmHg 95%
09:00 +10°C° 2.3 mm 6 mps 734 mmHg 95%
10:00 +10°C° 2.3 mm 6 mps 734 mmHg 94%
11:00 +9°C° 2.3 mm 5 mps 735 mmHg 94%
12:00 +9°C° 0.3 mm 6 mps 735 mmHg 92%
13:00 +9°C° 0.3 mm 7 mps 735 mmHg 91%
14:00 +10°C° 0.3 mm 8 mps 735 mmHg 90%
15:00 +10°C° 0 mm 7 mps 735 mmHg 90%
16:00 +10°C° 0 mm 7 mps 735 mmHg 89%
17:00 +10°C° 0 mm 6 mps 736 mmHg 89%
18:00 +10°C° 0.1 mm 6 mps 736 mmHg 89%
19:00 +10°C° 0.1 mm 6 mps 736 mmHg 88%
20:00 +10°C° 0.1 mm 6 mps 736 mmHg 88%
21:00 +9°C° 0 mm 6 mps 736 mmHg 89%
22:00 +9°C° 0 mm 6 mps 736 mmHg 89%
23:00 +9°C° 0 mm 6 mps 736 mmHg 90%

19 May, Wednesday

Time Temperature Precipitation Wind Pressure Humidity
00:00 +9°C° 0 mm 7 mps 736 mmHg 91%
01:00 +8°C° 0 mm 7 mps 736 mmHg 92%
02:00 +8°C° 0 mm 7 mps 736 mmHg 93%
03:00 +8°C° 0 mm 7 mps 736 mmHg 92%
04:00 +7°C° 0 mm 8 mps 737 mmHg 92%
05:00 +7°C° 0 mm 8 mps 737 mmHg 92%
06:00 +7°C° 0 mm 8 mps 737 mmHg 88%
07:00 +9°C° 0 mm 8 mps 737 mmHg 85%
08:00 +8°C° 0 mm 9 mps 738 mmHg 81%
09:00 +10°C° 0 mm 8 mps 738 mmHg 78%
10:00 +11°C° 0 mm 8 mps 739 mmHg 74%
11:00 +12°C° 0 mm 8 mps 739 mmHg 70%
12:00 +12°C° 0.1 mm 8 mps 739 mmHg 69%
13:00 +12°C° 0.1 mm 8 mps 740 mmHg 69%
14:00 +12°C° 0.1 mm 8 mps 740 mmHg 69%
15:00 +12°C° 0 mm 7 mps 740 mmHg 69%
16:00 +14°C° 0 mm 7 mps 740 mmHg 69%
17:00 +14°C° 0 mm 6 mps 741 mmHg 69%
18:00 +12°C° 0 mm 5 mps 741 mmHg 74%
19:00 +11°C° 0 mm 4 mps 741 mmHg 79%
20:00 +10°C° 0 mm 3 mps 742 mmHg 83%
21:00 +9°C° 0 mm 3 mps 742 mmHg 86%
22:00 +8°C° 0 mm 3 mps 743 mmHg 89%
23:00 +7°C° 0 mm 3 mps 743 mmHg 92%

20 May, Thursday

Time Temperature Precipitation Wind Pressure Humidity
00:00 +7°C° 0 mm 3 mps 743 mmHg 92%
01:00 +7°C° 0 mm 3 mps 743 mmHg 93%
02:00 +6°C° 0 mm 2 mps 744 mmHg 93%
03:00 +6°C° 0 mm 2 mps 744 mmHg 93%
04:00 +5°C° 0 mm 3 mps 744 mmHg 94%
05:00 +5°C° 0 mm 3 mps 744 mmHg 94%
06:00 +8°C° 0 mm 3 mps 744 mmHg 88%
07:00 +9°C° 0 mm 3 mps 745 mmHg 82%
08:00 +11°C° 0 mm 3 mps 745 mmHg 76%
09:00 +12°C° 0 mm 4 mps 745 mmHg 70%
10:00 +14°C° 0 mm 4 mps 745 mmHg 65%
11:00 +15°C° 0 mm 4 mps 745 mmHg 59%
12:00 +15°C° 0.2 mm 4 mps 745 mmHg 58%
13:00 +16°C° 0.2 mm 5 mps 745 mmHg 57%
14:00 +16°C° 0.2 mm 5 mps 745 mmHg 56%
15:00 +16°C° 0.3 mm 5 mps 745 mmHg 59%
16:00 +17°C° 0.3 mm 4 mps 745 mmHg 62%
17:00 +15°C° 0.3 mm 4 mps 745 mmHg 64%
18:00 +14°C° 0.1 mm 3 mps 745 mmHg 71%
19:00 +12°C° 0.1 mm 3 mps 745 mmHg 78%
20:00 +10°C° 0.1 mm 2 mps 745 mmHg 85%
21:00 +10°C° 0 mm 2 mps 745 mmHg 86%
22:00 +9°C° 0 mm 2 mps 745 mmHg 87%
23:00 +9°C° 0 mm 2 mps 745 mmHg 88%

21 May, Friday

Time Temperature Precipitation Wind Pressure Humidity
00:00 +8°C° 0 mm 2 mps 745 mmHg 88%
01:00 +8°C° 0 mm 3 mps 745 mmHg 89%
02:00 +8°C° 0 mm 3 mps 744 mmHg 89%
03:00 +8°C° 0 mm 3 mps 744 mmHg 89%
04:00 +8°C° 0 mm 3 mps 744 mmHg 89%
05:00 +8°C° 0 mm 3 mps 744 mmHg 89%
06:00 +10°C° 0 mm 4 mps 744 mmHg 85%
07:00 +10°C° 0 mm 5 mps 743 mmHg 81%
08:00 +13°C° 0 mm 6 mps 743 mmHg 77%
09:00 +14°C° 0 mm 6 mps 743 mmHg 71%
10:00 +16°C° 0 mm 7 mps 743 mmHg 66%
11:00 +17°C° 0 mm 8 mps 743 mmHg 60%
12:00 +18°C° 0 mm 8 mps 742 mmHg 60%
13:00 +20°C° 0 mm 8 mps 742 mmHg 59%
14:00 +20°C° 0 mm 7 mps 742 mmHg 59%
15:00 +18°C° 0.1 mm 8 mps 742 mmHg 62%
16:00 +17°C° 0.1 mm 8 mps 742 mmHg 65%
17:00 +16°C° 0.1 mm 9 mps 743 mmHg 68%
18:00 +15°C° 0 mm 7 mps 743 mmHg 70%
19:00 +13°C° 0 mm 5 mps 743 mmHg 72%
20:00 +11°C° 0 mm 3 mps 743 mmHg 74%
21:00 +11°C° 0 mm 3 mps 743 mmHg 76%
22:00 +10°C° 0 mm 3 mps 743 mmHg 79%
23:00 +10°C° 0 mm 3 mps 743 mmHg 81%
Show more

We Need Your Consent

Meteoprog and our Service Providers may store and access personal data such as cookies, device identifiers or other similar technologies on your device and process such data to personalise content and ads, as well as provide social media features and to analyse the traffic.

  • Store and/or access information on your device

    Cookies, device identifiers or other information can be stored or accessed on your device for the purposes indicated above.

  • Personalised ads and content, ad and content measurement, audience insights, and products development

    Ads and content can be personalised based on a profile. More data can be added to better personalise ads and content. Ad and content performance can be measured. Insights about the audience who saw the ads and content can be derived. Such data can be used to develop or improve user’s experience, systems and software.

By clicking ‘I Agree’ you will allow the use of indicated cookies, device identifiers, web beacons or other similar technologies. Your settings can be changed in the browser on your device.

For certain purposes, legitimate interests may be relied on, rather than consent. You can read more about this in our Privacy and Cookie Policy.